Weather History for Massena, NY

Change the Weather History Date:

Tuesday, January 29, 2013

  Actual Average Record
Temperature  
Mean Temperature 19 °F 14 °F  
Max Temperature 31 °F 25 °F 50 °F (1950)
Min Temperature 7 °F 5 °F -25 °F (1971)
Degree Days  
Heating Degree Days 46 50  
Month to date heating degree days 1372 1465  
Since 1 July heating degree days 4158 4564  
Moisture  
Dew Point 18 °F    
Average Humidity 87    
Maximum Humidity 100    
Minimum Humidity 74    
Precipitation  
Precipitation T in 0.06 in 0.65 in (1958)
Month to date precipitation 0.74 2.06  
Year to date precipitation 0.74 2.06  
Sea Level Pressure  
Sea Level Pressure 30.01 in    
Wind  
Wind Speed 6 mph (NE)    
Max Wind Speed 13 mph    
Max Gust Speed 16 mph    
Visibility 6 miles    
Events Rain    
T = Trace of Precipitation, MM = Missing Value Source: NWS Daily Summary

Daily Weather History Graph

Daily Weather History Graph

Search for Another Location

Airport:

Trip Planner

Search our weather history database for the weather conditions in past years. The results will help you decide how hot, cold, wet, or windy it might be!

Date:

Astronomy

Jan. 29, 2013 Rise Set
Actual Time 7:22 AM EST 5:03 PM EST
Civil Twilight 6:50 AM EST 5:35 PM EST
Nautical Twilight 6:15 AM EST 6:10 PM EST
Astronomical Twilight 5:40 AM EST 6:44 PM EST
Moon 8:07 PM EST (1/29) 8:08 AM EST (1/29)
Length of Visible Light 10h 44m
Length of Day
9h 41m
Waning Gibbous, 94% of the Moon is Illuminated
Jan 29
Waning Gibbous
Feb 3
Last Quarter
Feb 10
New
Feb 17
First Quarter
Feb 25
Full

Hourly Weather History & Observations

Time (EST) Temp. Windchill Dew Point Humidity Pressure Visibility Wind Dir Wind Speed Gust Speed Precip Events Conditions
12:53 AM 15.1 °F 5.2 °F 12.0 °F 88% 30.08 in 9.0 mi NNE 6.9 mph - N/A   Mostly Cloudy
1:02 AM 15.8 °F 6.1 °F 12.2 °F 86% 30.06 in 9.0 mi NNE 6.9 mph - N/A   Mostly Cloudy
1:10 AM 15.8 °F 8.6 °F 12.2 °F 86% 30.06 in 9.0 mi NNE 4.6 mph - N/A   Overcast
1:53 AM 12.0 °F 5.9 °F 10.0 °F 92% 30.11 in 8.0 mi NNE 3.5 mph - N/A   Partly Cloudy
2:09 AM 10.4 °F 4.0 °F 8.6 °F 92% 30.08 in 8.0 mi NNE 3.5 mph - N/A   Scattered Clouds
2:17 AM 8.6 °F 2.0 °F 6.8 °F 92% 30.08 in 7.0 mi NNE 3.5 mph - N/A   Mostly Cloudy
2:53 AM 7.0 °F - 6.1 °F 96% 30.11 in 7.0 mi Calm Calm - N/A   Overcast
3:53 AM 12.0 °F - 10.0 °F 92% 30.12 in 9.0 mi Calm Calm - N/A   Overcast
4:53 AM 12.9 °F - 10.9 °F 92% 30.14 in 9.0 mi Calm Calm - N/A   Overcast
5:08 AM 14.0 °F - 12.2 °F 93% 30.11 in 10.0 mi Calm Calm - N/A   Overcast
5:22 AM 15.8 °F 10.2 °F 12.2 °F 86% 30.10 in 10.0 mi ENE 3.5 mph - N/A   Overcast
5:53 AM 16.0 °F - 12.9 °F 88% 30.14 in 10.0 mi Calm Calm - N/A   Overcast
6:09 AM 15.8 °F 10.2 °F 10.4 °F 79% 30.10 in 10.0 mi East 3.5 mph - N/A   Overcast
6:53 AM 17.1 °F - 12.9 °F 84% 30.15 in 9.0 mi Calm Calm - N/A   Overcast
7:53 AM 17.1 °F 10.0 °F 12.0 °F 81% 30.17 in 6.0 mi NNE 4.6 mph - N/A   Haze
8:53 AM 18.0 °F 6.9 °F 14.0 °F 84% 30.16 in 4.0 mi ENE 9.2 mph - N/A   Overcast
9:53 AM 19.0 °F 11.1 °F 15.1 °F 85% 30.18 in 7.0 mi ENE 5.8 mph - N/A   Overcast
10:53 AM 19.9 °F 11.1 °F 16.0 °F 85% 30.18 in 6.0 mi ENE 6.9 mph - N/A   Overcast
11:53 AM 21.0 °F 10.6 °F 17.1 °F 85% 30.13 in 6.0 mi ENE 9.2 mph - N/A   Overcast
12:11 PM 21.2 °F 11.7 °F 17.6 °F 86% 30.10 in 6.0 mi ENE 8.1 mph - N/A   Overcast
12:53 PM 23.0 °F 14.7 °F 18.0 °F 81% 30.09 in 7.0 mi ENE 6.9 mph - N/A   Scattered Clouds
1:53 PM 24.1 °F 15.2 °F 18.0 °F 77% 30.05 in 9.0 mi NE 8.1 mph - N/A   Clear
2:53 PM 26.1 °F 17.6 °F 19.9 °F 78% 30.04 in 8.0 mi ENE 8.1 mph - N/A   Overcast
3:53 PM 27.0 °F 17.3 °F 21.0 °F 78% 30.02 in 7.0 mi ENE 10.4 mph - N/A   Overcast
4:53 PM 26.1 °F 16.2 °F 21.0 °F 81% 30.01 in 7.0 mi ENE 10.4 mph - N/A   Overcast
5:18 PM 26.6 °F 16.8 °F 21.2 °F 80% 29.97 in 8.0 mi ENE 10.4 mph - N/A   Overcast
5:53 PM 26.1 °F 16.8 °F 21.0 °F 81% 29.99 in 8.0 mi NE 9.2 mph - N/A   Overcast
6:53 PM 26.1 °F 18.4 °F 21.9 °F 84% 29.95 in 7.0 mi ENE 6.9 mph - N/A   Overcast
7:53 PM 27.0 °F 19.5 °F 23.0 °F 85% 29.91 in 6.0 mi ENE 6.9 mph - N/A   Overcast
8:38 PM 28.4 °F 20.4 °F 24.8 °F 86% 29.87 in 2.5 mi ENE 8.1 mph - N/A   Overcast
8:50 PM 28.4 °F 21.2 °F 24.8 °F 86% 29.87 in 1.8 mi ENE 6.9 mph - N/A   Overcast
8:53 PM 28.0 °F 20.0 °F 25.0 °F 88% 29.89 in 1.8 mi ENE 8.1 mph - N/A   Overcast
9:02 PM 28.4 °F 21.2 °F 24.8 °F 86% 29.86 in 1.8 mi ENE 6.9 mph - N/A   Overcast
9:09 PM 28.4 °F 20.4 °F 26.6 °F 93% 29.86 in 2.0 mi ENE 8.1 mph - N/A   Overcast
9:18 PM 28.4 °F 22.2 °F 26.6 °F 93% 29.86 in 1.8 mi ENE 5.8 mph - N/A   Overcast
9:28 PM 28.4 °F 21.2 °F 26.6 °F 93% 29.86 in 1.5 mi ENE 6.9 mph - N/A   Overcast
9:31 PM 28.4 °F 21.2 °F 26.6 °F 93% 29.85 in 1.2 mi ENE 6.9 mph - 0.00 in Rain Light Freezing Rain
9:53 PM 30.0 °F 23.2 °F 27.0 °F 88% 29.86 in 1.5 mi ENE 6.9 mph - 0.00 in Rain Light Freezing Rain
10:53 PM 30.0 °F 24.1 °F 28.0 °F 92% 29.83 in 1.2 mi ENE 5.8 mph - 0.00 in Rain Light Freezing Rain
11:15 PM 30.2 °F 25.4 °F 28.4 °F 93% 29.80 in 1.8 mi ENE 4.6 mph - 0.00 in Rain Light Freezing Rain
11:43 PM 30.2 °F 24.3 °F 28.4 °F 93% 29.79 in 2.0 mi ENE 5.8 mph - 0.00 in Rain Light Freezing Rain
11:53 PM 30.9 °F 27.5 °F 30.0 °F 96% 29.81 in 2.0 mi ENE 3.5 mph - 0.00 in   Overcast